Regional Weather Roundup
Issued by NWS

Home | Current Version | Previous Version | Graphics & Text | Print | Product List | Glossary On
Versions: 1 2 3 4 5 6 7 8 9 10 11 12 13 14 15 16 17 18 19 20 21 22 23 24 25 26 27 28 29 30 31 32 33 34 35 36 37 38 39 40 41 42 43 44 45 46 47 48 49 50
000
ASUS43 KDTX 310510
RWRMI
MICHIGAN HOURLY REGIONAL WEATHER ROUNDUP
NATIONAL WEATHER SERVICE DETROIT/PONTIAC MI
100 AM EDT THU JUL 31 2014

NOTE: "FAIR" INDICATES FEW OR NO CLOUDS BELOW 12,000 FEET WITH NO
SIGNIFICANT WEATHER AND/OR OBSTRUCTION TO VISIBILITY.

MIZ047>049-052>055-059>063-066>070-074>076-081>083-310600-
SOUTHEAST LOWER MICHIGAN

CITY           SKY/WX    TMP DP  RH WIND       PRES   REMARKS
ADRIAN         CLEAR     61  57  87 NW6       30.02F
ALMA           PTCLDY    54  50  86 CALM      30.01S
ANN ARBOR      CLEAR     55  53  93 SW6       30.01S
BAD AXE        MOCLDY    56  55  96 E5        29.99S
DETROIT CITY   CLEAR     64  58  80 W8        29.99R
DETROIT        MOCLDY    60  57  89 SW6       30.01R
FLINT          PTCLDY    61  52  72 W7        29.99S
GROSSE ILE     MOCLDY    63  61  94 W3        29.99S
HILLSDALE      CLEAR     53  53 100 CALM      30.03S
HOWELL         CLEAR     56  53  89 W6        30.01R

CITY           SKY/WX    TMP DP  RH WIND       PRES   REMARKS
JACKSON        CLEAR     57  52  83 W5        30.02S
LAMBERTVILLE   MOCLDY    61  57  88 CALM      30.01S FOG
LANSING        PTCLDY    56  50  80 W6        30.02S
LAPEER         NOT AVBL
MASON          CLEAR     55  49  81 CALM      30.01S
MONROE         CLEAR     59  57  94 CALM      29.99S FOG
MT. CLEMENS    CLEAR     59  59 100 W3        29.97S
PONTIAC        CLEAR     60  57  89 W7        29.99S
PORT HOPE        N/A     60  56  86 E10       29.97F
PORT HURON     CLEAR     55  55 100 CALM      29.98S
TRI CITIES     PTCLDY    62  53  72 NW6       30.00R
YPSILANTI      CLEAR     61  56  83 SW5       30.01R
$$
MIZ043>046-050>051-056>058-064>065-071>073-077>080-310600-
SOUTHWEST LOWER MICHIGAN

CITY           SKY/WX    TMP DP  RH WIND       PRES   REMARKS
BATTLE CREEK   CLEAR     57  51  80 SW3       30.03F
BENTON HARBOR  CLEAR     53  51  93 CALM      30.04S
BIG RAPIDS     MOCLDY    54  51  91 SW3       30.00S
COLDWATER      CLEAR     57  56  95 W3        30.04S
HOLLAND        CLEAR     54  50  86 CALM      30.03S
GRAND RAPIDS   CLEAR     57  52  83 W6        30.02S
KALAMAZOO      CLEAR     56  53  90 CALM      30.04S
MARSHALL       CLEAR     53  52  97 CALM      30.03S
MUSKEGON       CLEAR     54  50  86 CALM      30.01F
$$
MIZ016>042-310600-
NORTHERN LOWER MICHIGAN

CITY           SKY/WX    TMP DP  RH WIND       PRES   REMARKS
ALPENA         CLOUDY    56  55  97 CALM      29.98S
BEAVER ISLAND  PTCLDY    53  53 100 CALM      29.96S FOG
BELLAIRE       MOCLDY    54  52  93 CALM      29.98R
CADILLAC       MOCLDY    52  50  93 CALM      29.99S
CHARLEVOIX     CLOUDY    58  55  88 S3        30.00S
FRANKFORT      CLOUDY    61  50  67 CALM      29.99R
GAYLORD        RAIN      56  50  80 CALM      29.99R
GRAYLING       MOCLDY    54  52  93 CALM      30.00R
HARBOR SPRINGS MOCLDY    57  54  90 CALM      29.96F
HOUGHTON LAKE  CLOUDY    50  49  96 CALM      29.99F
MANISTEE       MOCLDY    55  52  88 CALM      29.99S
OSCODA         CLOUDY    57  56  94 CALM      29.98S
PELLSTON       CLOUDY    55  54  96 CALM      29.97S
TRAVERSE CITY  MOCLDY    58  50  75 S3        29.97R
$$
MIZ007>008-015-310600-
EASTERN UPPER MICHIGAN

CITY           SKY/WX    TMP DP  RH WIND       PRES   REMARKS
KINROSS        MOCLDY    55  55 100 W3        29.95F
MACKINAC ISLAN CLOUDY    58  56  94 W5        29.96S
NEWBERRY       MOCLDY    50  49  97 W10       29.95F
S. S. MARIE    MOCLDY    53  50  89 CALM      29.95S
$$
MIZ004>006-011>014-085-310600-
CENTRAL UPPER MICHIGAN

CITY           SKY/WX    TMP DP  RH WIND       PRES   REMARKS
MANISTIQUE     FOG       48  48 100 CALM      29.95S VSB 1/2
ESCANABA       PTCLDY    54  50  87 CALM      29.96S
MENOMINEE      PTCLDY    57  55  94 CALM      29.96S
SAWYER-GWINN   MOCLDY    52  50  93 CALM      29.96F
$$
MIZ001>003-009>011-084-310600-
WESTERN UPPER MICHIGAN

CITY           SKY/WX    TMP DP  RH WIND       PRES   REMARKS
IRON MOUNTAIN  PTCLDY    54  53  97 CALM      29.97S
HOUGHTON       PTCLDY    56  53  90 NW8       29.95S
COPPER HARBOR    N/A     60  53  77 VRB5      29.92F
$$

ABBREVIATIONS USED IN REMARKS
   TC - TEMPERATURE IN CELSIUS
  WCI - WIND CHILL INDEX
   HX - HEAT INDEX
  VSB - VISIBILITY



USA.gov is the U.S. government's official web portal to all federal, state and local government web resources and services.